Tracking 19176 objects as of 26-May-2018
HD Live streaming from Space Station
objects crossing your sky now

FENGYUN 1C DEB

Track FENGYUN 1C DEB now!
10-day predictions


NORAD ID: 30406
Int'l Code: 1999-025ADV
Perigee: 851.8 km
Apogee: 1,293.6 km
Inclination: 98.6 °
Period: 106.5 minutes
Semi major axis: 7443 km
RCS: 0.0212 m2 (small)
Launch date: May 10, 1999
Source: People's Republic of China (PRC)
Launch site: Taiyaun Space Center, China (TSC)

Note: This is SATELLITE DEBRIS
aabbcc
Your satellite tracking list
Your tracking list is empty




NASA's NSSDC Master Catalog

Two Line Element Set (TLE):
1 30406U 99025ADV 18145.54148564  .00000426  00000-0  53751-3 0  9990
2 30406  98.5951 350.9340 0296779 303.3213 107.9542 13.51816038558597
Source of the keplerian elements: AFSPC